FW8148 Weather Reports


Display with metric or nautical units.
time (UTC)temp
F
wind
direction
speed
MPH
gust
MPH
rain 1hr
in
rain 24hr
in
rain mn
in
humidity
%
barometer
mb
20260505035403 54 18 1.0 3.0 0.00 0.11 0.00 99 1008.8
20260505034717 54 26 1.0 3.0 0.00 0.11 0.00 99 1008.8
20260505033603 54 23 1.0 7.0 0.00 0.11 0.00 99 1009.0
20260505032703 54 25 1.0 3.0 0.00 0.11 0.00 99 1009.1
20260505031803 54 24 1.0 2.0 0.00 0.11 0.00 99 1009.0
20260505030903 54 24 1.0 4.0 0.00 0.11 0.00 99 1009.1
20260505030003 54 27 1.0 4.0 0.00 0.11 0.00 99 1009.3
20260505025403 54 25 1.0 2.0 0.00 0.11 0.00 99 1009.2
20260505024503 54 21 1.0 3.0 0.00 0.11 0.00 99 1009.1
20260505023603 55 28 1.0 4.0 0.00 0.11 0.00 99 1009.2
20260505022918 55 25 1.0 4.0 0.00 0.11 0.00 99 1009.2
20260505021803 55 20 1.0 2.0 0.00 0.11 0.00 99 1009.4
20260505021116 55 18 1.0 2.0 0.00 0.11 0.00 99 1009.4
20260505020003 55 16 0.0 2.0 0.00 0.11 0.00 99 1009.7
20260505015403 55 13 1.0 2.0 0.00 0.11 0.00 99 1009.7
20260505014503 55 23 0.0 2.0 0.00 0.11 0.00 99 1009.8
20260505013603 55 22 1.0 2.0 0.00 0.11 0.00 99 1010.1
20260505012703 55 29 0.0 2.0 0.00 0.11 0.00 99 1009.8
20260505012017 54 30 0.0 2.0 0.00 0.11 0.00 99 1009.7
20260505010903 54 30 1.0 3.0 0.00 0.11 0.00 99 1009.9
20260505010217 54 27 1.0 3.0 0.00 0.11 0.00 99 1009.5
20260505005403 54 21 1.0 3.0 0.00 0.11 0.00 99 1009.7
20260505004503 54 25 1.0 4.0 0.00 0.11 0.00 99 1009.9
20260505003603 54 26 1.0 4.0 0.00 0.11 0.00 99 1009.9
20260505002703 54 26 1.0 4.0 0.00 0.11 0.00 99 1009.9
20260505002018 54 22 1.0 3.0 0.00 0.11 0.00 99 1009.7
20260505000904 54 23 0.0 1.0 0.00 0.11 0.00 99 1009.8
20260505000003 54 30 0.0 3.0 0.00 0.11 0.00 99 1009.8
20260504235403 54 35 0.0 1.0 0.00 0.11 0.00 99 1009.6
20260504234503 54 25 0.0 1.0 0.00 0.11 0.00 99 1009.7
20260504233603 53 0 0.0 0.0 0.00 0.11 0.00 99 1010.0
20260504232703 54 0 0.0 0.0 0.00 0.11 0.00 99 1010.1
20260504231804 54 0 0.0 0.0 0.00 0.11 0.00 99 1010.2
20260504230903 54 0 0.0 0.0 0.00 0.11 0.00 99 1010.3
20260504230003 54 0 0.0 0.0 0.00 0.11 0.00 99 1010.4
20260504225403 54 0 0.0 0.0 0.00 0.11 0.00 99 1010.2
20260504224503 54 0 0.0 0.0 0.00 0.11 0.00 99 1010.5
20260504223603 54 0 0.0 0.0 0.00 0.11 0.00 99 1010.5
20260504222703 55 0 0.0 1.0 0.00 0.11 0.00 99 1010.4
20260504222017 55 24 0.0 1.0 0.00 0.11 0.00 99 1010.5
20260504221117 55 57 0.0 1.0 0.00 0.11 0.00 99 1010.6
20260504220004 55 0 0.0 0.0 0.00 0.11 0.00 99 1010.9
20260504215403 55 0 0.0 0.0 0.00 0.11 0.11 98 1010.9
20260504214503 55 0 0.0 0.0 0.00 0.11 0.11 98 1010.7
20260504213603 55 0 0.0 0.0 0.00 0.11 0.11 98 1010.8
20260504212703 55 0 0.0 0.0 0.00 0.11 0.11 98 1010.9
20260504211803 56 0 0.0 0.0 0.00 0.11 0.11 98 1010.9
20260504210903 56 0 0.0 0.0 0.00 0.11 0.11 98 1011.2
20260504210003 55 0 0.0 0.0 0.00 0.11 0.11 98 1011.1
20260504205403 56 0 0.0 0.0 0.00 0.11 0.11 98 1011.0
20260504204503 56 0 0.0 0.0 0.01 0.11 0.11 98 1011.5
20260504203603 56 0 0.0 0.0 0.01 0.11 0.11 98 1011.3
20260504202703 56 0 0.0 0.0 0.01 0.11 0.11 98 1011.5
20260504201803 56 0 0.0 0.0 0.01 0.11 0.11 97 1011.4
20260504200905 56 0 0.0 0.0 0.01 0.11 0.11 97 1011.2
20260504200005 56 0 0.0 0.0 0.01 0.11 0.11 97 1011.2
20260504195617 56 0 0.0 0.0 0.01 0.11 0.11 97 1011.2
20260504194503 56 0 0.0 0.0 0.01 0.10 0.10 97 1011.1
20260504193603 56 0 0.0 0.0 0.03 0.10 0.10 97 1011.0
20260504192703 56 0 0.0 0.0 0.04 0.10 0.10 96 1010.9
20260504192018 56 0 0.0 0.0 0.05 0.10 0.10 96 1010.9
20260504190904 57 0 0.0 0.0 0.06 0.10 0.10 95 1011.0
20260504190003 57 0 0.0 0.0 0.07 0.10 0.10 95 1010.9
20260504185404 57 0 0.0 0.0 0.07 0.10 0.10 94 1010.9
20260504184508 57 0 0.0 0.0 0.06 0.09 0.09 93 1010.9
20260504183605 57 0 0.0 0.0 0.04 0.07 0.07 92 1010.9
20260504182703 57 137 0.0 2.0 0.03 0.06 0.06 91 1010.9
20260504181803 58 124 0.0 2.0 0.02 0.05 0.05 90 1010.6
20260504180905 58 119 1.0 6.0 0.01 0.04 0.04 88 1010.9
20260504180003 59 101 1.0 6.0 0.00 0.03 0.03 87 1010.8
20260504175403 59 89 2.0 4.0 0.00 0.03 0.03 87 1010.7
20260504174503 60 90 2.0 6.0 0.00 0.03 0.03 84 1010.6
20260504173603 63 94 1.0 6.0 0.00 0.03 0.03 80 1010.8
20260504172703 64 23 0.0 2.0 0.00 0.03 0.03 79 1010.7
20260504171803 64 0 0.0 0.0 0.00 0.03 0.03 78 1010.6
20260504170904 64 23 0.0 1.0 0.00 0.03 0.03 78 1010.7
20260504150903 62 19 0.0 1.0 0.00 0.03 0.03 81 1010.8
20260504140903 60 13 1.0 2.0 0.00 0.03 0.03 90 1011.3
20260504081803 58 0 0.0 0.0 0.00 0.01 0.00 92 1012.7
20260504080904 58 40 0.0 1.0 0.00 0.01 0.00 93 1012.7
20260504070216 56 0 0.0 0.0 0.00 0.02 0.00 99 1012.0
20260504050003 52 0 0.0 0.0 0.00 0.11 0.00 99 1011.1
20260504045403 52 0 0.0 0.0 0.00 0.12 0.00 99 1011.1
20260504044503 52 0 0.0 0.0 0.00 0.13 0.00 99 1011.0
20260504043818 52 0 0.0 0.0 0.00 0.13 0.00 99 1011.0
20260504042704 52 0 0.0 0.0 0.00 0.14 0.00 98 1011.0
20260504041803 52 0 0.0 0.0 0.00 0.14 0.00 98 1011.3
20260504040905 52 0 0.0 0.0 0.00 0.14 0.00 98 1011.2
20260504040217 52 0 0.0 0.0 0.00 0.14 0.00 98 1011.1